Blythe, CA

10:41 PM PDT on September 28, 2016 (GMT -0700)
Blythe

Weather History for KBLH - November, 2011

Change the Weather History Date:

Wednesday, November 23, 2011

  Actual Average Record
Temperature  
Mean Temperature 62 °F -  
Max Temperature 75 °F 71 °F 82 °F (2002)
Min Temperature 48 °F 45 °F 36 °F (2010)
Degree Days  
Heating Degree Days 4    
Growing Degree Days 12 (Base 50)    
Moisture  
Dew Point 37 °F    
Average Humidity 47    
Maximum Humidity 63    
Minimum Humidity 24    
Precipitation  
Precipitation 0.00 in - - ()
Sea Level Pressure  
Sea Level Pressure 29.99 in    
Wind  
Wind Speed 3 mph (WSW)    
Max Wind Speed 9 mph    
Max Gust Speed -    
Visibility 10 miles    
Events      
Averages and records for this station are not official NWS values.
T = Trace of Precipitation, MM = Missing Value Source: NWS Daily Summary

Daily Weather History Graph

Daily Weather History Graph

Search for Another Location

Airport or City:

Trip Planner

Search our weather history database for the weather conditions in past years. The results will help you decide how hot, cold, wet, or windy it might be!

Date:

Astronomy

Nov. 23, 2011 Rise Set
Actual Time 6:17 AM PST 4:32 PM PST
Civil Twilight 5:51 AM PST 4:59 PM PST
Nautical Twilight 5:20 AM PST 5:29 PM PST
Astronomical Twilight 4:50 AM PST 5:59 PM PST
Moon 4:29 AM PST (11/23) 3:16 PM PST (11/23)
Length of Visible Light 11h 08m
Length of Day
10h 14m
Waning Crescent, 3% of the Moon is Illuminated
Nov 23
Waning Crescent
Nov 24
New
Dec 2
First Quarter
Dec 10
Full
Dec 17
Last Quarter

Hourly Weather History & Observations

Time (PST) Temp. Dew Point Humidity Pressure Visibility Wind Dir Wind Speed Gust Speed Precip Events Conditions
1:52 AM 51.1 °F 37.0 °F 59% 30.11 in 10.0 mi West 3.5 mph - N/A   Clear
2:52 AM 50.0 °F 37.0 °F 61% 30.09 in 10.0 mi Calm Calm - N/A   Clear
3:52 AM 48.9 °F 36.0 °F 61% 30.08 in 10.0 mi SW 5.8 mph - N/A   Clear
4:52 AM 48.9 °F 36.0 °F 61% 30.07 in 10.0 mi SW 6.9 mph - N/A   Clear
5:52 AM 48.0 °F 36.0 °F 63% 30.07 in 10.0 mi WSW 9.2 mph - N/A   Clear
6:52 AM 48.9 °F 36.0 °F 61% 30.09 in 10.0 mi WSW 9.2 mph - N/A   Clear
7:52 AM 53.1 °F 36.0 °F 52% 30.10 in 10.0 mi West 3.5 mph - N/A   Clear
8:52 AM 57.9 °F 37.0 °F 46% 30.09 in 10.0 mi Calm Calm - N/A   Clear
9:52 AM 61.0 °F 39.0 °F 44% 30.08 in 10.0 mi ENE 4.6 mph - N/A   Clear
10:52 AM 66.0 °F 39.0 °F 37% 30.05 in 10.0 mi Calm Calm - N/A   Clear
12:52 PM 72.0 °F 37.9 °F 29% 29.95 in 10.0 mi North 4.6 mph - N/A   Clear
1:52 PM 73.9 °F 37.9 °F 27% 29.92 in 10.0 mi North 4.6 mph - N/A   Clear
2:52 PM 75.0 °F 36.0 °F 24% 29.91 in 10.0 mi Calm Calm - N/A   Clear
3:52 PM 75.0 °F 36.0 °F 24% 29.90 in 10.0 mi Calm Calm - N/A   Clear
4:52 PM 69.1 °F 37.9 °F 32% 29.91 in 10.0 mi South 5.8 mph - N/A   Clear
5:52 PM 66.0 °F 37.9 °F 36% 29.91 in 10.0 mi South 6.9 mph - N/A   Clear
6:52 PM 60.1 °F 37.0 °F 42% 29.92 in 10.0 mi Calm Calm - N/A   Clear
7:52 PM 55.9 °F 37.9 °F 51% 29.92 in 10.0 mi NE 3.5 mph - N/A   Clear
8:52 PM 55.9 °F 39.9 °F 55% 29.92 in 10.0 mi Calm Calm - N/A   Clear
9:52 PM 55.0 °F 37.0 °F 51% 29.92 in 10.0 mi Calm Calm - N/A   Clear
10:52 PM 54.0 °F 36.0 °F 51% 29.91 in 10.0 mi Calm Calm - N/A   Clear
11:52 PM 50.0 °F 35.1 °F 57% 29.91 in 10.0 mi Calm Calm - N/A   Clear